#timestamp,LO_Frequency,Hit,StdDev 
1593255615.2,286046991.1,N
1593255635.1,286046984.4,N
1593255636.0,286046984.4,N
1593255655.8,286046981.8,N
1593255675.6,286046978.7,Y
1593255695.5,286046975.9,P
1593255715.3,286046974.8,N
1593255735.1,286046972.3,N
1593255755.9,286046968.5,Y
1593255775.7,286046986.9,P
1593255795.6,286046989.9,N
1593255815.4,286046987.3,P
1593255835.2,286046988.5,Y
1593255855.1,286047008.8,P
1593255856.0,286047008.8,N
1593255875.8,286047005.2,N
1593255895.7,286047009.2,N
1593255915.5,286047009.3,N
1593255935.3,286047015.4,N
1593255955.2,286047012.7,N
1593255975.0,286047008.9,N
1593255975.9,286047008.9,N
1593255995.8,286047006.6,N
1593256015.6,286047006.0,N
1593256035.4,286046996.5,N
1593256055.3,286046994.4,N
1593256075.1,286046999.5,N
1593256076.0,286046999.5,N
1593256095.8,286047002.1,N
1593256115.7,286046997.8,N
1593256135.5,286047004.4,N
1593256155.3,286047008.7,N
1593256175.2,286047007.5,N
1593256195.0,286047006.0,N
1593256195.9,286047006.0,N
1593256215.8,286046999.9,N
1593256235.6,286047001.0,N
1593256255.4,286047001.7,N
1593256275.3,286047003.6,N
1593256295.1,286047003.6,N
1593256315.9,286047006.4,N
1593256335.7,286047016.2,N
1593256355.5,286047020.5,Y
1593256375.4,286047027.9,P
1593256395.2,286047031.5,N
1593256415.1,286047030.8,N
1593256416.0,286047030.8,N
1593256435.8,286047024.6,N
1593256455.6,286047020.4,N
1593256475.5,286047011.3,N
1593256495.3,286047012.5,N
1593256515.1,286047011.7,N
1593256535.9,286047017.5,N
1593256555.7,286047017.5,N
1593256575.6,286047023.7,N
1593256595.4,286047025.9,Y
1593256615.2,286047007.6,P
1593256635.1,286047003.9,N
1593256636.0,286047003.9,N
1593256655.8,286047000.5,N
1593256675.7,286046998.7,N
1593256695.5,286046992.8,N
1593256715.3,286046996.0,N
1593256735.2,286047001.0,N
1593256755.0,286047001.6,N
1593256755.9,286047001.6,N
1593256775.8,286047003.6,N
1593256795.6,286047005.0,N
1593256815.4,286047006.6,N
1593256835.3,286047005.3,N
1593256855.1,286047003.2,N
1593256875.8,286047001.6,N
1593256895.7,286047004.0,N
1593256915.5,286047006.8,N
1593256935.4,286047013.6,N
1593256955.2,286047014.5,N
1593256975.0,286047014.2,N
1593256975.9,286047014.2,N
1593256995.8,286047006.1,N
1593257015.6,286046999.9,N
1593257035.4,286046997.0,N
1593257055.3,286046996.4,N
1593257075.1,286046989.1,N
1593257095.9,286046984.1,N
1593257115.7,286046985.5,N
1593257135.5,286046983.1,N
1593257155.4,286046983.3,N
1593257175.2,286046981.6,N
1593257195.0,286046980.7,N
1593257195.9,286046980.7,N
1593257215.8,286046983.4,N
1593257235.6,286046986.4,N
1593257255.5,286046981.6,N
1593257275.3,286046981.9,N
1593257295.1,286046976.8,N
1593257315.9,286046973.7,N
1593257335.7,286046974.0,N
1593257355.6,286046969.3,N
1593257375.4,286046968.6,N
1593257395.2,286046964.9,N
1593257415.1,286046967.6,N
1593257416.0,286046967.6,N
1593257435.8,286046967.3,N
1593257455.6,286046960.9,N
1593257475.5,286046957.7,N
1593257495.3,286046953.7,Y
1593257515.2,286046972.1,P
1593257535.9,286046973.1,P
1593257555.7,286046977.1,P
1593257575.6,286046975.9,Y
1593257595.4,286047002.7,P
1593257615.3,286047003.9,N
1593257635.1,286047007.2,N
1593257636.0,286047007.2,N
1593257655.8,286047008.8,N
1593257675.7,286047005.1,N
1593257695.5,286047009.2,N
1593257715.3,286047004.7,N
1593257735.2,286047005.0,N
1593257755.0,286047005.7,N
1593257755.9,286047005.7,N
1593257775.8,286047009.9,N
1593257795.6,286047010.2,N
1593257815.4,286047014.2,N
1593257835.3,286047016.6,N
1593257855.1,286047014.9,N
1593257875.9,286047018.1,N
1593257895.7,286047020.5,N
1593257915.5,286047023.3,N
1593257935.4,286047017.4,N
1593257955.2,286047014.4,N
1593257975.0,286047013.0,N
1593257975.9,286047013.0,N
1593257995.8,286047013.2,N
1593258015.6,286047007.7,N
1593258035.4,286047005.6,N
1593258055.3,286047007.1,N
1593258075.1,286047006.7,N
1593258095.9,286047005.5,N
1593258115.7,286047004.1,N
1593258135.5,286047002.6,N
1593258155.4,286046996.9,N
1593258175.2,286046996.1,N
1593258195.1,286046992.8,N
1593258196.0,286046992.8,N
1593258215.8,286046992.2,N
1593258235.6,286046989.3,N
1593258255.5,286046992.9,N
1593258275.3,286046993.2,N
1593258295.1,286046989.2,N
1593258315.9,286046992.9,N
1593258335.7,286046992.1,N
1593258355.6,286046999.1,N
1593258375.4,286047003.0,N
1593258395.2,286047018.1,N
1593258415.1,286047023.2,N
1593258416.0,286047023.2,N
1593258435.8,286047017.7,N
1593258455.7,286047012.5,N
1593258475.5,286047008.2,N
1593258495.3,286047005.1,N
1593258515.2,286047001.5,N
1593258535.0,286046998.6,N
1593258535.9,286046998.6,N
1593258555.8,286046995.7,N
1593258575.6,286046992.4,N
1593258595.4,286046992.6,N
1593258615.3,286046991.1,N
1593258635.1,286046988.7,N
1593258655.8,286046991.3,N
1593258675.7,286046998.4,N
1593258695.5,286047014.5,N
1593258715.4,286047028.5,N
1593258735.2,286047039.4,Y
1593258755.0,286047050.6,P
1593258755.9,286047050.6,N
1593258775.8,286047053.6,N
1593258795.6,286047059.5,N
1593258815.5,286047069.4,Y
1593258835.3,286047022.8,P
1593258855.1,286047021.6,N
1593258875.9,286047015.0,N
1593258895.7,286047009.5,N
1593258915.5,286047004.6,N
1593258935.4,286047001.6,N
1593258955.2,286046996.0,N
1593258975.1,286046995.7,N
1593258976.0,286046995.7,N
1593258995.8,286046995.6,N
1593259015.6,286046999.4,N
1593259035.5,286047000.3,N
1593259055.3,286047006.6,N
1593259075.1,286047013.4,N
1593259095.9,286047019.3,N
1593259115.7,286047032.8,N
1593259135.6,286047037.3,N
1593259155.4,286047041.7,N
1593259175.2,286047046.5,N
1593259195.1,286047043.1,N
1593259196.0,286047043.1,N
